Regional Weather Roundup
Issued by NWS

Home | Current Version | Previous Version | Graphics & Text | Print | Product List | Glossary Off
Versions: 1 2 3 4 5 6 7 8 9 10 11 12 13 14 15 16 17 18 19 20 21 22 23 24 25 26 27 28 29 30 31 32 33 34 35 36 37 38 39 40 41 42 43 44 45 46 47 48 49 50

000
ASUS43 KDMX 170507
RWRIA

WEATHER ROUNDUP FOR IOWA
NATIONAL WEATHER SERVICE DES MOINES IA
1200 AM CDT WED SEP 17 2014

NOTE: "FAIR" INDICATES FEW OR NO CLOUDS BELOW 12,000 FEET WITH NO
SIGNIFICANT WEATHER AND/OR OBSTRUCTIONS TO VISIBILITY.

* - THESE STATIONS ARE NOT NWS STATIONS...THUS NOT UNDER NWS
QUALITY CONTROL.  THEY ALSO DO NOT REPORT WEATHER SUCH
AS PRECIPITATION OR FOG.

IAZ001>003-012>014-020>022-031>034-043>046-170600-
   NORTHWEST IOWA

CITY           SKY/WX    TMP DP  RH WIND       PRES   REMARKS
CARROLL *      PTCLDY    50  48  93 S3        30.03S
CHEROKEE *     CLEAR     48  48 100 S3        30.01S
DENISON *      CLOUDY    54  50  87 SE5       30.00S
LE MARS *        N/A     59  50  72 S9        29.98F
ORANGE CITY *  CLOUDY    59  50  72 S6        29.98F
SHELDON *      CLOUDY    55  50  82 SE7       29.98F
SIOUX CITY     CLOUDY    57  52  83 SE7       29.98F
SPENCER        MOCLDY    53  47  79 S7        30.00F
STORM LAKE *   CLEAR     50  50 100 S8        30.02S
$$

IAZ055>058-069>071-079>083-090>094-170600-
   SOUTHWEST IOWA

CITY           SKY/WX    TMP DP  RH WIND       PRES   REMARKS
ATLANTIC *     CLOUDY    57  52  82 CALM      30.02F
AUDUBON *      CLEAR     48  45  87 CALM      30.04F
CLARINDA *     CLOUDY    59  55  88 S3        30.04S
COUNCIL BLFS * CLOUDY    61  54  77 S8        30.00S
CRESTON *      MOCLDY    55  52  88 SE5       30.05S
HARLAN  *      CLOUDY    55  54  94 CALM      30.05F
LAMONI         MOCLDY    57  50  77 SE6       30.05F
SHENANDOAH *   CLOUDY    61  54  77 SE8       30.02F
$$

IAZ047>049-059>061-072>074-084-170600-
   CENTRAL IOWA

CITY           SKY/WX    TMP DP  RH WIND       PRES   REMARKS
AMES           PTCLDY    50  49  96 CALM      30.05S
ANKENY *       CLEAR     48  48 100 CALM      30.05F
CHARITON *     CLOUDY    52  50  93 SE3       30.05F
DES MOINES     PTCLDY    56  49  77 SE7       30.05F
GRINNELL*      CLOUDY    50  46  87 CALM      30.07F
KNOXVILLE *    PTCLDY    54  48  82 SE6       30.05S
MARSHALLTOWN   MOCLDY    50  46  86 SE5       30.06S
PELLA *        CLEAR     50  48  94 SE3       30.07F
PERRY *          N/A     50  48  93 SE3       30.04F
$$

IAZ004>006-015-016-023>025-035-036-170600-
   NORTH CENTRAL IOWA

CITY           SKY/WX    TMP DP  RH WIND       PRES   REMARKS
ALGONA *       CLOUDY    55  50  82 S5        30.03S
CLARION *        N/A     55  48  76 S8        30.03F
ESTHERVILLE    PTCLDY    48  46  93 S8        30.01F
FORT DODGE *   CLOUDY    54  48  82 S3        30.04F
MASON CITY     MOCLDY    47  45  93 S7        30.05S
FOREST CITY *  CLOUDY    52  46  82 CALM      30.04S
IOWA FALLS *   CLOUDY    52  48  87 S6        30.06S
$$

IAZ007>011-017>019-026>030-037>042-050>054-066-170600-
   NORTHEAST IOWA

CITY           SKY/WX    TMP DP  RH WIND       PRES   REMARKS
CEDAR RAPIDS   CLEAR     47  45  93 SE3       30.07F
CHARLES CITY * CLEAR     50  45  81 S5        30.05F
CLINTON *      CLEAR     45  41  87 E5        30.11S
DECORAH *      CLEAR     48  45  87 S5        30.04F
DUBUQUE        CLEAR     46  43  89 CALM      30.08F
MONTICELLO *   CLEAR     43  43 100 CALM      30.08S
OELWEIN *      CLEAR     46  43  87 S6        30.07S
WATERLOO       CLEAR     46  44  93 CALM      30.05F
$$

IAZ064-065-067-068-078-170600-
   EAST CENTRAL IOWA

CITY           SKY/WX    TMP DP  RH WIND       PRES   REMARKS
DAVENPORT      CLEAR     48  43  82 S3        30.09S
IOWA CITY      CLEAR     49  47  93 CALM      30.09S
MT. PLEASANT * CLEAR     48  46  93 CALM      30.09S
MUSCATINE *    CLEAR     50  46  87 CALM      30.09S
QUAD CITIES    CLEAR     47  45  93 CALM      30.09S
$$

IAZ062-063-075>077-085>089-095>099-170600-
   SOUTHEAST IOWA

CITY           SKY/WX    TMP DP  RH WIND       PRES   REMARKS
BURLINGTON     CLEAR     49  47  93 CALM      30.08F
FAIRFIELD *    CLEAR     50  46  87 CALM      30.08S
FORT MADISON * CLEAR     52  48  87 CALM      30.09S
KEOKUK *       CLEAR     50  50 100 CALM      30.07S
OSKALOOSA *    MOCLDY    52  48  87 SE6       30.07S
CENTERVILLE *  CLEAR     48  48 100 CALM      30.08S
OTTUMWA        CLEAR     49  47  93 SE3       30.07S
WASHINGTON *   CLEAR     48  48 100 CALM      30.08F
$$

ABBREVIATIONS USED IN REMARKS
   TC - TEMPERATURES IN CELSIUS
  WCI - WIND CHILL INDEX
   HX - HEAT INDEX
  VSB - VISIBILITY
$$



USA.gov is the U.S. government's official web portal to all federal, state and local government web resources and services.